Weather History for Grand Rapids, MI

Change the Weather History Date:

Wednesday, February 12, 2014

  Actual Average Record
Temperature  
Mean Temperature 8 °F 26 °F  
Max Temperature 22 °F 33 °F 55 °F (1984)
Min Temperature -6 °F 19 °F -23 °F (1899)
Degree Days  
Heating Degree Days 57 39  
Month to date heating degree days 609 476  
Since 1 July heating degree days 4574 4183  
Cooling Degree Days 0 0  
Month to date cooling degree days 0 0  
Year to date cooling degree days 0 0  
Moisture  
Dew Point 1 °F    
Average Humidity 67    
Maximum Humidity 86    
Minimum Humidity 47    
Precipitation  
Precipitation 0.00 in 0.07 in 1.70 in (1938)
Month to date precipitation 0.85 0.70  
Year to date precipitation 4.26 2.79  
Snow  
Snow 0.00 in 0.50 in 4.20 in (1964)
Month to date snowfall 13.4 6.8  
Since 1 July snowfall 92.2 56.8  
Snow Depth 21.00 in    
Sea Level Pressure  
Sea Level Pressure 30.27 in    
Wind  
Wind Speed 6 mph (South)    
Max Wind Speed 12 mph    
Max Gust Speed 14 mph    
Visibility 9 miles    
Events      
T = Trace of Precipitation, MM = Missing Value Source: NWS Daily Summary

Daily Weather History Graph

Daily Weather History Graph

Search for Another Location

Airport:

Trip Planner

Search our weather history database for the weather conditions in past years. The results will help you decide how hot, cold, wet, or windy it might be!

Date:

Astronomy

Feb. 12, 2014 Rise Set
Actual Time 7:43 AM EST 6:09 PM EST
Civil Twilight 7:14 AM EST 6:38 PM EST
Nautical Twilight 6:40 AM EST 7:12 PM EST
Astronomical Twilight 6:08 AM EST 7:45 PM EST
Moon 4:21 PM EST (2/12) 6:01 AM EST (2/12)
Length of Visible Light 11h 24m
Length of Day
10h 26m
Waxing Gibbous, 95% of the Moon is Illuminated
Feb 12
Waxing Gibbous
Feb 14
Full
Feb 22
Last Quarter
Mar 1
New
Mar 8
First Quarter

Hourly Weather History & Observations

Time (EST) Temp. Windchill Dew Point Humidity Pressure Visibility Wind Dir Wind Speed Gust Speed Precip Events Conditions
12:53 AM 1.0 °F -12.9 °F -4.0 °F 79% 30.44 in 10.0 mi South 8.1 mph - N/A   Clear
1:53 AM 1.0 °F -12.9 °F -4.0 °F 79% 30.43 in 9.0 mi SSE 8.1 mph - N/A   Clear
2:53 AM 1.9 °F -9.2 °F -4.0 °F 76% 30.43 in 9.0 mi South 5.8 mph - N/A   Clear
3:53 AM -2.0 °F -12.2 °F -6.0 °F 83% 30.41 in 8.0 mi SSE 4.6 mph - N/A   Clear
4:53 AM -2.0 °F -10.1 °F -7.1 °F 79% 30.40 in 7.0 mi SE 3.5 mph - N/A   Clear
5:53 AM -6.0 °F -14.7 °F -9.9 °F 83% 30.40 in 8.0 mi SE 3.5 mph - N/A   Clear
6:53 AM -4.0 °F - -9.9 °F 76% 30.38 in 8.0 mi Calm Calm - N/A   Partly Cloudy
7:53 AM -2.9 °F - -9.0 °F 75% 30.37 in 6.0 mi Calm Calm - N/A   Scattered Clouds
8:53 AM -0.9 °F -16.4 °F -6.0 °F 79% 30.35 in 7.0 mi SSE 9.2 mph - N/A   Mostly Cloudy
9:53 AM 3.9 °F -9.4 °F -0.9 °F 80% 30.33 in 9.0 mi SSE 8.1 mph - N/A   Mostly Cloudy
10:53 AM 9.0 °F -2.2 °F 1.9 °F 73% 30.32 in 10.0 mi South 6.9 mph - N/A   Mostly Cloudy
11:53 AM 14.0 °F 2.0 °F 3.0 °F 62% 30.30 in 10.0 mi South 9.2 mph - N/A   Overcast
12:53 PM 16.0 °F 4.4 °F 3.0 °F 57% 30.26 in 10.0 mi South 9.2 mph - N/A   Overcast
1:53 PM 18.0 °F 9.8 °F 3.9 °F 54% 30.21 in 10.0 mi South 5.8 mph - N/A   Mostly Cloudy
2:53 PM 19.9 °F 11.1 °F 5.0 °F 52% 30.18 in 10.0 mi SSW 6.9 mph - N/A   Overcast
3:53 PM 21.0 °F 12.4 °F 5.0 °F 50% 30.17 in 10.0 mi SSW 6.9 mph - N/A   Overcast
4:53 PM 21.9 °F 13.4 °F 5.0 °F 48% 30.16 in 10.0 mi SW 6.9 mph - N/A   Overcast
5:53 PM 21.0 °F 14.6 °F 6.1 °F 53% 30.15 in 10.0 mi South 4.6 mph - N/A   Overcast
6:53 PM 21.0 °F 16.2 °F 7.0 °F 55% 30.16 in 10.0 mi South 3.5 mph - N/A   Overcast
7:53 PM 21.9 °F - 6.1 °F 51% 30.16 in 10.0 mi Calm Calm - N/A   Overcast
8:53 PM 21.9 °F 14.5 °F 7.0 °F 53% 30.14 in 10.0 mi South 5.8 mph - N/A   Overcast
9:53 PM 21.0 °F 10.6 °F 8.1 °F 57% 30.12 in 10.0 mi South 9.2 mph - N/A   Overcast
10:53 PM 21.0 °F 16.2 °F 8.1 °F 57% 30.10 in 10.0 mi South 3.5 mph - N/A   Overcast
11:53 PM 19.0 °F 10.0 °F 8.1 °F 62% 30.07 in 10.0 mi South 6.9 mph - N/A   Overcast